C/2013 R1 ( Lovejoy )

Japanese version
Home page
Updated on April 13, 2014

---------------------------------------------------------------------

* Profile

Discovery Date September 7, 2013
Magnitude 14.4 mag
Discoverer Terry Lovejoy (Thornlands, Qld., Australia)

* Pictures

* Orbital Elements

Epoch 2013 Dec. 14.0 TT = JDT 2456640.5
T 2013 Dec. 22.73387 TT                                 MPC
q   0.8118189            (2000.0)            P               Q
z  +0.0020162      Peri.   67.16713     -0.25260178     -0.46477530
                   Node    70.71088     +0.12869068     -0.88542133
e   0.9983632      Incl.   64.04059     +0.95897396     -0.00360552
From 2892 observations 2013 Sept. 7-2014 Apr. 6, mean residual 0".6.
     Nongravitational parameters A1 = +1.04, A2 = -0.2915.

* Finding Charts

* Magnitudes Graph

        m1 = 6.7 + 5 log d + 15.0 log r  [ ,0]  (             - 2013 Dec. 22)
        m1 = 6.3 + 5 log d + 10.0 log r  [0, ]  (2013 Dec. 22 -             )

---------------------------------------------------------------------

The orbital elements are published on M.P.E.C. 2014-G32.
The charts are made with StellaNavigator Ver.8 (AstroArts).
The magnitudes graphs are made with Comet for Windows.

---------------------------------------------------------------------

Copyright(C) Seiichi Yoshida (comet@aerith.net). All rights reserved.